This demonstration page uses our WeatherBlox Daily Observations layout. Learn more.

Left ArrowRight Arrow

44.89941, -97.11507

Hourly Observations for April 17, 2016

Temp ( °F °C ) Dew Point ( °F °C ) Humidity (%) Winds ( mph kmh ) Pressure ( in mb ) Visibility ( mi km ) Precip ( " mm )
12:53 am 00:53 Cloudy 51 10.6 49 9.4 92 92 NNW 12 19 30.19 1022 10 16 0.00 0.00
1:45 am 01:45 Cloudy 49 9.4 46 7.8 90 90 N 10 17 30.21 1023 10 16 0.00 0.00
1:53 am 01:53 Cloudy 48 8.9 46 7.8 93 93 N 13 20 30.19 1023 10 16 0.00 0.00
2:02 am 02:02 Cloudy 48 8.9 46 7.8 93 93 N 14 22 30.24 1024 10 16 0.00 0.00
2:53 am 02:53 Cloudy 47 8.3 45 7.2 93 93 N 13 20 30.20 1023 10 16 0.00 0.00
3:48 am 03:48 Cloudy 46 8 43 6 87 87 N 13 20 30.24 1024 10 16 0.00 0.00
3:53 am 03:53 Cloudy 46 7.8 43 6.1 89 89 N 12 19 30.20 1023 10 16 0.00 0.00
4:53 am 04:53 Cloudy 45 7.2 43 6.1 93 93 N 8 13 30.22 1023 8 13 0.00 0.00
5:21 am 05:21 Cloudy with Mist and Fog 44 6.7 43 6.1 96 96 N 12 19 30.24 1024 2 3 0.00 0.00
5:30 am 05:30 Cloudy with Mist and Fog 45 7.2 43 6.1 93 93 N 12 19 30.24 1024 1 2 0.00 0.00
5:48 am 05:48 Mostly Cloudy with Mist and Fog 45 7 43 6 93 93 N 10 17 30.24 1024 1 1 0.00 0.03
5:53 am 05:53 Mostly Cloudy with Fog 44 6.7 43 6.1 96 96 N 10 17 30.21 1023 1 1 0.00 0.03
6:20 am 06:20 Mostly Cloudy with Mist and Fog 44 6.7 43 6.1 96 96 N 10 17 30.24 1024 1 2 0.00 0.00
6:32 am 06:32 Mostly Cloudy with Mist and Fog 44 6.7 42 5.6 93 93 N 10 17 30.24 1024 1 1 0.00 0.00
6:53 am 06:53 Mostly Cloudy with Fog 44 6.7 43 6.1 96 96 N 10 17 30.23 1024 0 0 0.00 0.00
7:39 am 07:39 Mostly Cloudy with Fog 44 6.7 43 6.1 96 96 NNE 10 17 30.24 1024 1 1 0.00 0.00
7:53 am 07:53 Cloudy with Fog 45 7.2 44 6.7 97 97 NE 8 13 30.24 1024 1 1 0.00 0.00
8:01 am 08:01 Cloudy with Mist and Fog 45 7.2 44 6.7 97 97 NE 14 22 30.24 1024 2 2 0.00 0.00
8:04 am 08:04 Cloudy with Mist and Fog 45 7.2 44 6.7 97 97 NE 13 20 30.24 1024 4 6 0.00 0.00
8:28 am 08:28 Cloudy with Mist and Fog 45 7.2 43 6.1 93 93 NE 13 20 30.24 1024 2 3 0.00 0.00
8:53 am 08:53 Cloudy with Mist and Fog 45 7.2 43 6.1 93 93 NE 13 20 30.24 1024 3 5 0.00 0.00
9:03 am 09:03 Cloudy with Mist and Fog 44 6.7 43 6.1 96 96 NE 13 20 30.24 1024 2 3 0.00 0.00
9:09 am 09:09 Cloudy with Mist and Fog 44 6.7 43 6.1 96 96 NE 10 17 30.24 1024 1 2 0.00 0.00
9:26 am 09:26 Cloudy with Mist and Fog 46 7.8 44 6.7 93 93 NE 9 15 30.24 1024 2 3 0.00 0.00
9:44 am 09:44 Cloudy with Mist and Fog 46 7.8 44 6.7 93 93 NE 10 17 30.24 1024 2 3 0.00 0.00
9:53 am 09:53 Cloudy with Mist and Fog 46 7.8 44 6.7 93 93 NE 12 19 30.23 1024 3 5 0.00 0.00
10:46 am 10:46 Cloudy 50 10 46 7.8 86 86 ENE 9 15 30.21 1023 10 16 0.00 0.00
10:53 am 10:53 Cloudy 50 10 46 7.8 86 86 E 12 19 30.24 1024 10 16 0.00 0.00
11:35 am 11:35 Cloudy 52 11.1 46 7.8 80 80 ENE 10 17 30.21 1023 10 16 0.00 0.00
11:53 am 11:53 Mostly Cloudy 56 13.3 49 9.4 77 77 E 10 17 30.24 1024 10 16 0.00 0.00
12:53 pm 12:53 Partly Cloudy 59 15 49 9.4 69 69 E 10 17 30.23 1024 10 16 0.00 0.00
1:53 pm 13:53 Cloudy 61 16.1 49 9.4 65 65 E 10 17 30.21 1023 10 16 0.00 0.00
2:53 pm 14:53 Cloudy 63 17.2 49 9.4 60 60 E 9 15 30.22 1023 10 16 0.00 0.00
3:53 pm 15:53 Partly Cloudy 68 20 51 10.6 55 55 E 10 17 30.19 1022 10 16 0.00 0.00
4:53 pm 16:53 Mostly Cloudy 66 18.9 50 10 56 56 E 9 15 30.19 1022 10 16 0.00 0.00
5:53 pm 17:53 Mostly Sunny 66 18.9 50 10 56 56 ENE 12 19 30.18 1022 10 16 0.00 0.00
6:53 pm 18:53 Sunny 64 17.8 51 10.6 63 63 NNE 7 11 30.19 1022 10 16 0.00 0.00
7:53 pm 19:53 Sunny 60 15.6 50 10 70 70 NNE 8 13 30.19 1023 10 16 0.00 0.00
8:53 pm 20:53 Mostly Clear 56 13.3 50 10 81 81 N 7 11 30.22 1023 10 16 0.00 0.00
9:53 pm 21:53 Mostly Cloudy 54 12.2 51 10.6 90 90 NNE 12 19 30.24 1024 8 13 0.02 0.51
10:45 pm 22:45 Mostly Cloudy with Mist and Fog 54 12.2 50 10 87 87 N 8 13 30.24 1024 5 8 0.00 0.00
10:53 pm 22:53 Mostly Cloudy 53 11.7 50 10 89 89 N 6 9 30.25 1024 8 13 0.00 0.00
11:53 pm 23:53 Clear with Mist and Fog 52 11.1 49 9.4 89 89 N 9 15 30.24 1024 6 10 0.00 0.00

Powered by AerisWeather